Regional Weather Roundup
Issued by NWS Bismarck, ND

Home | Current Version | Previous Version | Text Only | Print | Product List | Glossary On
Versions: 1 2 3 4 5 6 7 8 9 10 11 12 13 14 15 16 17 18 19 20 21 22 23 24 25 26 27 28 29 30 31 32 33 34 35 36 37 38 39 40 41 42 43 44 45 46 47 48 49 50
000
ASUS43 KBIS 252110
RWRBIS

NWR BROADCAST TEXT
NATIONAL WEATHER SERVICE BISMARCK ND
400 PM CDT MON JUL 25 2016

NOTE: "FAIR" INDICATES FEW OR NO CLOUDS BELOW 12,000 FEET WITH NO
SIGNIFICANT WEATHER AND/OR OBSTRUCTIONS TO VISIBILITY.


CITY           SKY/WX    TMP DP  RH WIND       PRES   REMARKS
WILLISTON      SUNNY     91  51  25 NE10      29.97S
MINOT          SUNNY     89  63  41 NE8       29.94F HX  90
MINOT AFB      SUNNY     87  63  45 NE9       29.93F
BISMARCK       SUNNY     92  65  40 S9        29.93F HX  94
DICKINSON      SUNNY     91  44  19 CALM      29.96F
GARRISON         N/A     86  65  49 S5        29.95F
HETTINGER ARPT PTSUNNY   99  48  17 VRB6      29.96F HX  95
JAMESTOWN      MOSUNNY   88  62  41 S13G24    29.94F
BEACH          FAIR      91  48  22 NE5       30.01S
CARRINGTON     FAIR      88  70  55 SW10      29.95F HX  92
HAZEN            N/A     90  63  40 NW3       29.95F HX  90
LINTON         FAIR      91  70  49 S14G20    29.96F HX  97
MANDAN         FAIR      90  63  40 SW8       29.96S HX  90
OAKES            N/A    N/A N/A N/A MISG        N/A
STANLEY        FAIR      82  63  51 N12       30.00S
WATFORD CITY     N/A    N/A N/A N/A MISG        N/A
$$

CITY           SKY/WX    TMP DP  RH WIND       PRES   REMARKS
GRAND FORKS    SUNNY     88  66  48 S7        29.93F HX  90
GRAND FORKS AF SUNNY     86  66  51 S12       29.94F
DEVILS LAKE    SUNNY     85  68  56 VRB6      29.95F
FARGO          SUNNY     89  61  38 S14G21    29.95F
CAVALIER       FAIR      84  64  51 SW7       29.95S
GRAFTON        FAIR      84  64  51 VRB7      29.96F
GWINNER        FAIR      90  63  40 S16       29.98F HX  90
LANGDON        FAIR      86  66  51 E3        29.98F
ROLLA            N/A     81  64  57 E7        30.00S
$$

CITY           SKY/WX    TMP DP  RH WIND       PRES   REMARKS
ABERDEEN       SUNNY     93  56  28 S16G22    29.98F HX  91
MOBRIDGE       SUNNY    100  51  19 S17       29.91F HX  97
BUFFALO          N/A     99  41  13 VRB7      29.91F HX  94
RAPID CITY     CLOUDY    88  55  32 S15G22    30.01F
GLASGOW        SUNNY     91  48  22 VRB3      29.97S
SIDNEY         SUNNY     91  55  29 NE10      29.95F
WOLF POINT     SUNNY     94  47  20 NE10      29.96F HX  90
GLENDIVE       SUNNY     93  51  23 VRB5G16   29.96F HX  90
MILES CITY     SUNNY     98  37  12 W5        29.94F HX  93
BAKER          SUNNY     95  47  19 E8        29.99F HX  91
$$

CITY           SKY/WX    TMP DP  RH WIND       PRES   REMARKS
BILLINGS       MOSUNNY   94  29  10 E5        30.01F
GREAT FALLS    SUNNY     88  40  18 VRB7      30.07F
REGINA         MOSUNNY   84  59  42 N12       29.98F
ESTEVAN        MOSUNNY   84  61  45 CALM      29.98F
$$




USA.gov is the U.S. government's official web portal to all federal, state and local government web resources and services.